Tracking 20628 objects as of 5-Apr-2020
HD Live streaming from Space Station
objects crossing your sky now

PEGASUS DEB

Track PEGASUS DEB now!
10-day predictions


NORAD ID: 39928
Int'l Code: 1994-029AGB
Perigee: 557.3 km
Apogee: 976.4 km
Inclination: 81.0 °
Period: 100.0 minutes
Semi major axis: 7137 km
RCS: 0.0163 m2 (small)
Launch date: May 19, 1994
Source: United States (US)
Launch site: AIR FORCE WESTERN TEST RANGE (AFWTR)

Note: This is SATELLITE DEBRIS
aabbcc
Your satellite tracking list
Your tracking list is empty




NASA's NSSDC Master Catalog

Two Line Element Set (TLE):
1 39928U 94029AGB 20093.81595980 +.00000824 +00000-0 +15512-3 0  9995
2 39928 081.0272 128.7045 0293570 198.1508 160.9029 14.39630003305428
Source of the keplerian elements: AFSPC